User: anonymous   Login
Location: Caltech
(34.1382°N, 118.1253°W)
Time: 19:23:53
(UTC-07:00)
Language:

DELTA 2 R/B (1) - Orbit

View from above orbital plane
View from above orbital plane
View from above satellite
View from above satellite

Ground track
Ground track

The orbit data is extracted from the following two-line orbital elements,

1 27665U 03005C   17234.55126035 +.00000047 +00000-0 +52112-4 0  9994
2 27665 039.5757 132.3500 0008665 331.2449 090.6401 14.28450355760335
Epoch (UTC): 22 August 2017 13:13:48
Eccentricity: 0.0008665
inclination: 39.5757°
perigee height: 791 km
apogee height: 803 km
right ascension of ascending node: 132.3500°
argument of perigee: 331.2449°
revolutions per day: 14.28450355
mean anomaly at epoch: 90.6401°
orbit number at epoch: 76033

The dashed part of the orbit path shows where the satellite is in the earth's shadow,  

DLR